Hourly Data Report for October 19, 2016

All times are specified in Local Standard Time (LST). Add 1 hour to adjust for Daylight Saving Time where and when it is observed.

RESOLUTE BAY A
NUNAVUT

74°43'01.000" N
94°58'10.000" W
67.70 m
2403498
71924
YRB

Download Data

Hourly Data (October 2016)
Hourly Data Report for October 19, 2016
Temp Definition
°C
Dew Point Temp Definition
°C
Rel Hum Definition
%
Wind Dir Definition
10's deg

Wind Spd Definition
km/h
Visibility Definition
km
Stn Press Definition
kPa
Hmdx Definition


Wind Chill Definition


Weather Definition


TIME
00:00 Legend Double Dagger -12.2 -14.1 86 21 12 24.1 100.79   -19 Cloudy
01:00 Legend Double Dagger -12.2 -14.1 86 14 3 24.1 100.75   -14 LegendNANA
02:00 Legend Double Dagger -12.5 -14.2 87 12 8 24.1 100.71   -17 LegendNANA
03:00 Legend Double Dagger -12.8 -14.7 86 12 9 24.1 100.67   -18 Mostly Cloudy
04:00 Legend Double Dagger -12.1 -13.8 87 12 13 24.1 100.62   -19 LegendNANA
05:00 Legend Double Dagger -12.2 -14.1 86 11 10 24.1 100.59   -18 Snow
06:00 Legend Double Dagger -12.0 -13.9 86 12 13 24.1 100.56   -19 Snow
07:00 Legend Double Dagger -12.6 -14.5 86 10 10 8.1 100.52   -18 Snow,Fog
08:00 Legend Double Dagger -13.8 -16.0 84 10 9 9.7 100.49   -19 Snow,Fog
09:00 Legend Double Dagger -14.4 -16.7 83 9 16 24.1 100.44   -22 Snow
10:00 Legend Double Dagger -13.9 -16.1 84 8 16 24.1 100.40   -22 Snow
11:00 Legend Double Dagger -13.7 -15.9 84 8 16 24.1 100.37   -22 LegendNANA
12:00 Legend Double Dagger -15.2 -17.6 82 1 4 24.1 100.34   -18 Mainly Clear
13:00 Legend Double Dagger -13.4 -15.6 84 9 6 24.1 100.33   -17 LegendNANA
14:00 Legend Double Dagger -16.1 -18.4 83 4 5 24.1 100.32   -20 LegendNANA
15:00 Legend Double Dagger -16.1 -18.5 82 5 16 24.1 100.30   -25 Mainly Clear
16:00 Legend Double Dagger -17.6 -20.0 82 4 17 24.1 100.27   -27 LegendNANA
17:00 Legend Double Dagger -16.5 -18.8 83 4 18 24.1 100.28   -26 LegendNANA
18:00 Legend Double Dagger -17.6 -20.0 82 5 18 24.1 100.26   -27 Mainly Clear
19:00 Legend Double Dagger -15.7 -17.7 85 36 2 24.1 100.26   -17 LegendNANA
20:00 Legend Double Dagger -17.0 -19.2 83 12 4 24.1 100.23   -20 LegendNANA
21:00 Legend Double Dagger -17.8 -19.9 84 36 2 24.1 100.23   -19 Clear
22:00 Legend Double Dagger -19.6 -22.2 80 4 22 24.1 100.24   -30 Ice Crystals
23:00 Legend Double Dagger -19.3 -21.9 80 3 23 24.1 100.23   -30 Ice Crystals

Notes on Data Quality.

Legend

  • E = Estimated
  • M = Missing
  • NA = Not Available
  • ‡ = Partner data that is not subject to review by the National Climate Archives
Date modified: